Погода в Салтыковке

Россия / Саратовская область     52°06′52″N   44°04′28″E
темп.,
°C
ветер,
м/с
пор.,
м/с
влажн.,
%
обл.,
%
осадки,
мм/ч
давл.,
гПа
погр.,
м
6 марта, сб
сб601:00−10сз229284 0.0 101521
04:00−11ссз128990 0.0 101621
07:00−11св119295 0.0 101621
10:00−8юв119197 0.0 101621
13:00−5св1185100 0.0 1016237
16:00−5св1187100 0.0 1014270
19:00−9всв1193100 0.0 101421
22:00−9вюв1195100 0.0 101421
7 марта, вс
вс701:00−8ссз129799 1.0 101440
04:00−10сз369699 1.4 1015140
07:00−15зсз349664 0.0 101638
10:00−13зюз489649 0.1 1016240
13:00−7юз7128887 0.0 1014733
16:00−5юз8148293 0.0 1010951
19:00−4юз91777100 0.0 10061084
22:00−3юз102076100 0.1 10041149
8 марта, пн
пн801:00−2зюз101795100 0.8 10021074
04:00−5з489196 1.4 1003191
07:00−9зюз499267 0.0 1003165
10:00−6юз6148433 0.0 1003441
13:00−2зюз9159267 0.1 10031365
16:00−4зсз7137683 0.5 10041054
19:00−10з458967 0.0 100683
22:00−13з479639 0.0 1009101
9 марта, вт
вт901:00−15з449738 0.0 101076
04:00−15зюз469841 0.0 101198
07:00−16з349995 0.0 101344
10:00−14зсз249789 0.1 1014144
13:00−11зсз349269 0.0 1014290
16:00−10сз359082 0.0 1015446
19:00−14сз339699 0.0 101522
22:00−15сз2396100 0.0 101724
10 марта, ср
ср1001:00−15сз3697100 0.0 1018153
04:00−19ссз349994 0.1 102052
07:00−22сз44996 0.0 102167
10:00−20сз49953 0.0 1023294
13:00−18сз479031 0.0 1024460
16:00−17зсз478948 0.0 1024499
19:00−21сз339744 0.0 102420
22:00−23с229825 0.0 102620